,,PressureMeas_1m,,PRMeasQMR101_1,,RHStat155_1m_1,,SRMeasQMS101R_1m,,TAStat155_1m_1,,GenWind_1,,GenWind_1,
2019-02-02, 07:00:06,VALID,918.279,VALID,0.0,VALID,93.899,VALID,56.945,VALID,20.183,VALID,53.0,VALID,1.796,
2019-02-02, 07:01:06,VALID,918.288,VALID,0.0,VALID,93.747,VALID,60.176,VALID,20.237,VALID,51.0,VALID,1.495,
2019-02-02, 07:02:06,VALID,918.313,VALID,0.0,VALID,93.617,VALID,62.179,VALID,20.313,VALID,49.0,VALID,1.176,
2019-02-02, 07:03:06,VALID,918.325,VALID,0.0,VALID,93.423,VALID,58.671,VALID,20.371,VALID,50.0,VALID,1.536,
2019-02-02, 07:04:06,VALID,918.338,VALID,0.0,VALID,92.963,VALID,65.793,VALID,20.408,VALID,49.0,VALID,1.456,
2019-02-02, 07:05:06,VALID,918.374,VALID,0.0,VALID,92.969,VALID,64.84,VALID,20.449,VALID,48.0,VALID,1.162,
2019-02-02, 07:06:06,VALID,918.384,VALID,0.0,VALID,92.85,VALID,57.925,VALID,20.476,VALID,49.0,VALID,1.38,
2019-02-02, 07:07:06,VALID,918.416,VALID,0.0,VALID,92.715,VALID,56.209,VALID,20.476,VALID,48.0,VALID,1.264,
2019-02-02, 07:08:06,VALID,918.439,VALID,0.0,VALID,92.869,VALID,50.927,VALID,20.452,VALID,48.0,VALID,1.093,
2019-02-02, 07:09:06,VALID,918.457,VALID,0.0,VALID,92.898,VALID,52.631,VALID,20.421,VALID,49.0,VALID,1.381,
2019-02-02, 07:10:06,VALID,918.482,VALID,0.0,VALID,92.871,VALID,53.002,VALID,20.409,VALID,49.0,VALID,1.536,
2019-02-02, 07:11:06,VALID,918.505,VALID,0.0,VALID,92.887,VALID,55.132,VALID,20.411,VALID,49.0,VALID,1.366,
2019-02-02, 07:12:06,VALID,918.497,VALID,0.0,VALID,93.024,VALID,63.106,VALID,20.414,VALID,48.0,VALID,1.417,
2019-02-02, 07:13:06,VALID,918.546,VALID,0.0,VALID,93.097,VALID,69.666,VALID,20.399,VALID,48.0,VALID,1.325,
2019-02-02, 07:14:06,VALID,918.594,VALID,0.0,VALID,93.34,VALID,68.518,VALID,20.392,VALID,48.0,VALID,1.203,
2019-02-02, 07:15:06,VALID,918.604,VALID,0.0,VALID,93.601,VALID,77.519,VALID,20.411,VALID,47.0,VALID,0.818,
2019-02-02, 07:16:06,VALID,918.631,VALID,0.0,VALID,93.403,VALID,89.659,VALID,20.462,VALID,48.0,VALID,1.191,
2019-02-02, 07:17:06,VALID,918.643,VALID,0.0,VALID,93.023,VALID,89.414,VALID,20.515,VALID,47.0,VALID,1.146,
2019-02-02, 07:18:06,VALID,918.661,VALID,0.0,VALID,92.959,VALID,88.938,VALID,20.6,VALID,47.0,VALID,0.652,
2019-02-02, 07:19:06,VALID,918.673,VALID,0.0,VALID,92.631,VALID,78.012,VALID,20.677,VALID,47.0,VALID,0.781,
2019-02-02, 07:20:06,VALID,918.665,VALID,0.0,VALID,92.233,VALID,69.831,VALID,20.727,VALID,46.0,VALID,0.755,
2019-02-02, 07:21:06,VALID,918.671,VALID,0.0,VALID,92.149,VALID,62.687,VALID,20.707,VALID,46.0,VALID,0.601,
2019-02-02, 07:22:06,VALID,918.67,VALID,0.0,VALID,92.252,VALID,58.754,VALID,20.65,VALID,43.0,VALID,0.554,
2019-02-02, 07:23:06,VALID,918.688,VALID,0.0,VALID,92.598,VALID,57.408,VALID,20.581,VALID,41.0,VALID,0.845,
2019-02-02, 07:24:06,VALID,918.685,VALID,0.0,VALID,92.983,VALID,57.564,VALID,20.498,VALID,42.0,VALID,0.654,
2019-02-02, 07:25:06,VALID,918.714,VALID,0.0,VALID,93.201,VALID,58.379,VALID,20.432,VALID,42.0,VALID,0.898,
2019-02-02, 07:26:06,VALID,918.731,VALID,0.0,VALID,93.427,VALID,59.77,VALID,20.396,VALID,40.0,VALID,0.504,
2019-02-02, 07:27:06,VALID,918.758,VALID,0.0,VALID,93.695,VALID,61.526,VALID,20.397,VALID,45.0,VALID,0.589,
2019-02-02, 07:28:06,VALID,918.776,VALID,0.0,VALID,93.72,VALID,63.316,VALID,20.369,VALID,47.0,VALID,0.612,
2019-02-02, 07:29:06,VALID,918.792,VALID,0.0,VALID,93.78,VALID,66.32,VALID,20.356,VALID,40.0,VALID,0.975,
2019-02-02, 07:30:06,VALID,918.795,VALID,0.0,VALID,93.634,VALID,71.131,VALID,20.379,VALID,44.0,VALID,0.701,
2019-02-02, 07:31:06,VALID,918.815,VALID,0.0,VALID,93.497,VALID,77.98,VALID,20.428,VALID,44.0,VALID,1.003,
2019-02-02, 07:32:06,VALID,918.824,VALID,0.0,VALID,93.199,VALID,84.948,VALID,20.482,VALID,44.0,VALID,0.798,
2019-02-02, 07:33:06,VALID,918.844,VALID,0.0,VALID,92.906,VALID,117.856,VALID,20.549,VALID,45.0,VALID,0.748,
2019-02-02, 07:34:06,VALID,918.863,VALID,0.0,VALID,92.725,VALID,129.878,VALID,20.62,VALID,47.0,VALID,0.692,
2019-02-02, 07:35:06,VALID,918.888,VALID,0.0,VALID,92.196,VALID,124.84,VALID,20.674,VALID,47.0,VALID,0.76,
2019-02-02, 07:36:06,VALID,918.921,VALID,0.0,VALID,91.455,VALID,114.335,VALID,20.765,VALID,47.0,VALID,0.887,
2019-02-02, 07:37:06,VALID,918.943,VALID,0.0,VALID,91.429,VALID,110.604,VALID,20.839,VALID,48.0,VALID,0.807,
2019-02-02, 07:38:06,VALID,918.955,VALID,0.0,VALID,91.018,VALID,108.418,VALID,20.867,VALID,49.0,VALID,0.875,
2019-02-02, 07:39:06,VALID,918.955,VALID,0.0,VALID,90.514,VALID,109.658,VALID,20.923,VALID,53.0,VALID,0.932,
2019-02-02, 07:40:06,VALID,918.956,VALID,0.0,VALID,90.877,VALID,113.128,VALID,21.014,VALID,55.0,VALID,0.897,
2019-02-02, 07:41:06,VALID,918.962,VALID,0.0,VALID,90.931,VALID,125.026,VALID,21.075,VALID,53.0,VALID,1.036,
2019-02-02, 07:42:06,VALID,918.948,VALID,0.0,VALID,91.055,VALID,131.798,VALID,21.114,VALID,51.0,VALID,1.156,
2019-02-02, 07:43:06,VALID,918.953,VALID,0.0,VALID,90.985,VALID,143.061,VALID,21.131,VALID,52.0,VALID,1.117,
2019-02-02, 07:44:06,VALID,918.947,VALID,0.0,VALID,91.262,VALID,186.602,VALID,21.207,VALID,56.0,VALID,1.198,
2019-02-02, 07:45:06,VALID,918.947,VALID,0.0,VALID,90.44,VALID,218.107,VALID,21.345,VALID,56.0,VALID,1.179,
2019-02-02, 07:46:06,VALID,918.961,VALID,0.0,VALID,89.564,VALID,229.687,VALID,21.572,VALID,53.0,VALID,0.969,
2019-02-02, 07:47:06,VALID,918.971,VALID,0.0,VALID,89.01,VALID,246.804,VALID,21.776,VALID,51.0,VALID,1.188,
2019-02-02, 07:48:06,VALID,918.998,VALID,0.0,VALID,88.396,VALID,243.915,VALID,21.889,VALID,49.0,VALID,1.516,
2019-02-02, 07:49:06,VALID,919.018,VALID,0.0,VALID,86.382,VALID,252.544,VALID,21.859,VALID,50.0,VALID,1.436,
2019-02-02, 07:50:06,VALID,919.05,VALID,0.0,VALID,87.367,VALID,242.952,VALID,21.861,VALID,49.0,VALID,1.322,
2019-02-02, 07:51:06,VALID,919.068,VALID,0.0,VALID,88.54,VALID,242.218,VALID,21.943,VALID,52.0,VALID,1.016,
2019-02-02, 07:52:06,VALID,919.091,VALID,0.0,VALID,89.077,VALID,215.314,VALID,22.122,VALID,53.0,VALID,0.674,
2019-02-02, 07:53:06,VALID,919.107,VALID,0.0,VALID,86.942,VALID,203.87,VALID,22.271,VALID,52.0,VALID,1.313,
2019-02-02, 07:54:06,VALID,919.138,VALID,0.0,VALID,85.294,VALID,164.927,VALID,22.232,VALID,52.0,VALID,1.32,
2019-02-02, 07:55:06,VALID,919.141,VALID,0.0,VALID,85.804,VALID,173.725,VALID,22.13,VALID,51.0,VALID,1.27,
2019-02-02, 07:56:06,VALID,919.141,VALID,0.0,VALID,85.995,VALID,212.945,VALID,22.058,VALID,52.0,VALID,1.459,
2019-02-02, 07:57:06,VALID,919.134,VALID,0.0,VALID,86.659,VALID,245.789,VALID,22.087,VALID,53.0,VALID,1.354,
2019-02-02, 07:58:06,VALID,919.138,VALID,0.0,VALID,86.392,VALID,243.823,VALID,22.237,VALID,56.0,VALID,1.484,
2019-02-02, 07:59:06,VALID,919.157,VALID,0.0,VALID,85.276,VALID,245.421,VALID,22.373,VALID,51.0,VALID,1.65,
2019-02-02, 08:00:06,VALID,919.177,VALID,0.0,VALID,84.551,VALID,252.32,VALID,22.295,VALID,50.0,VALID,1.432,
2019-02-02, 08:01:06,VALID,919.196,VALID,0.0,VALID,85.615,VALID,257.298,VALID,22.281,VALID,53.0,VALID,1.118,
2019-02-02, 08:02:06,VALID,919.22,VALID,0.0,VALID,85.863,VALID,261.195,VALID,22.383,VALID,49.0,VALID,1.377,
2019-02-02, 08:03:06,VALID,919.23,VALID,0.0,VALID,85.507,VALID,265.039,VALID,22.424,VALID,52.0,VALID,1.062,
2019-02-02, 08:04:06,VALID,919.246,VALID,0.0,VALID,86.181,VALID,269.019,VALID,22.588,VALID,61.0,VALID,1.284,
2019-02-02, 08:05:06,VALID,919.254,VALID,0.0,VALID,84.734,VALID,272.131,VALID,22.781,VALID,75.0,VALID,0.874,
2019-02-02, 08:06:06,VALID,919.262,VALID,0.0,VALID,83.79,VALID,274.397,VALID,23.014,VALID,71.0,VALID,0.844,
2019-02-02, 08:07:06,VALID,919.274,VALID,0.0,VALID,82.619,VALID,276.38,VALID,23.04,VALID,67.0,VALID,0.951,
2019-02-02, 08:08:06,VALID,919.283,VALID,0.0,VALID,83.165,VALID,279.26,VALID,23.074,VALID,62.0,VALID,0.666,
2019-02-02, 08:09:06,VALID,919.289,VALID,0.0,VALID,82.488,VALID,280.993,VALID,23.212,VALID,65.0,VALID,1.247,
2019-02-02, 08:10:06,VALID,919.305,VALID,0.0,VALID,82.557,VALID,285.023,VALID,23.164,VALID,70.0,VALID,0.915,
2019-02-02, 08:11:06,VALID,919.331,VALID,0.0,VALID,81.909,VALID,289.879,VALID,23.216,VALID,69.0,VALID,0.942,
2019-02-02, 08:12:06,VALID,919.349,VALID,0.0,VALID,82.545,VALID,294.296,VALID,23.337,VALID,59.0,VALID,1.125,
2019-02-02, 08:13:06,VALID,919.364,VALID,0.0,VALID,82.23,VALID,297.599,VALID,23.517,VALID,67.0,VALID,0.91,
2019-02-02, 08:14:06,VALID,919.351,VALID,0.0,VALID,80.752,VALID,305.209,VALID,23.558,VALID,66.0,VALID,1.177,
2019-02-02, 08:15:06,VALID,919.344,VALID,0.0,VALID,80.968,VALID,310.713,VALID,23.541,VALID,75.0,VALID,0.928,
2019-02-02, 08:16:06,VALID,919.369,VALID,0.0,VALID,80.324,VALID,314.953,VALID,23.64,VALID,72.0,VALID,1.2,
2019-02-02, 08:17:06,VALID,919.355,VALID,0.0,VALID,79.147,VALID,319.529,VALID,23.644,VALID,66.0,VALID,1.514,
2019-02-02, 08:18:06,VALID,919.376,VALID,0.0,VALID,80.304,VALID,323.745,VALID,23.623,VALID,70.0,VALID,1.318,
2019-02-02, 08:19:06,VALID,919.353,VALID,0.0,VALID,79.946,VALID,329.048,VALID,23.664,VALID,68.0,VALID,1.298,
2019-02-02, 08:20:06,VALID,919.389,VALID,0.0,VALID,80.613,VALID,334.156,VALID,23.769,VALID,65.0,VALID,0.771,
2019-02-02, 08:21:06,VALID,919.42,VALID,0.0,VALID,78.809,VALID,338.222,VALID,23.846,VALID,68.0,VALID,1.666,
2019-02-02, 08:22:06,VALID,919.428,VALID,0.0,VALID,77.637,VALID,342.561,VALID,23.734,VALID,72.0,VALID,1.564,
2019-02-02, 08:23:06,VALID,919.455,VALID,0.0,VALID,78.57,VALID,346.618,VALID,23.755,VALID,59.0,VALID,0.871,
2019-02-02, 08:24:06,VALID,919.458,VALID,0.0,VALID,77.947,VALID,347.109,VALID,23.95,VALID,62.0,VALID,1.161,
2019-02-02, 08:25:06,VALID,919.454,VALID,0.0,VALID,77.944,VALID,349.194,VALID,24.183,VALID,58.0,VALID,0.879,
2019-02-02, 08:26:06,VALID,919.463,VALID,0.0,VALID,77.232,VALID,349.81,VALID,24.246,VALID,70.0,VALID,1.53,
2019-02-02, 08:27:06,VALID,919.442,VALID,0.0,VALID,76.673,VALID,350.36,VALID,24.171,VALID,71.0,VALID,1.225,
2019-02-02, 08:28:06,VALID,919.464,VALID,0.0,VALID,76.782,VALID,360.073,VALID,24.326,VALID,69.0,VALID,1.279,
2019-02-02, 08:29:06,VALID,919.457,VALID,0.0,VALID,75.646,VALID,368.133,VALID,24.383,VALID,66.0,VALID,1.458,
2019-02-02, 08:30:06,VALID,919.465,VALID,0.0,VALID,75.091,VALID,372.903,VALID,24.285,VALID,61.0,VALID,1.602,
2019-02-02, 08:31:06,VALID,919.475,VALID,0.0,VALID,76.496,VALID,376.921,VALID,24.177,VALID,72.0,VALID,1.714,
2019-02-02, 08:32:06,VALID,919.489,VALID,0.0,VALID,76.616,VALID,379.047,VALID,24.275,VALID,69.0,VALID,1.472,
2019-02-02, 08:33:06,VALID,919.489,VALID,0.0,VALID,76.407,VALID,382.795,VALID,24.268,VALID,60.0,VALID,1.471,
2019-02-02, 08:34:06,VALID,919.485,VALID,0.0,VALID,78.979,VALID,382.884,VALID,24.221,VALID,56.0,VALID,1.509,
2019-02-02, 08:35:06,VALID,919.487,VALID,0.0,VALID,78.357,VALID,388.929,VALID,24.481,VALID,70.0,VALID,0.588,
2019-02-02, 08:36:06,VALID,919.483,VALID,0.0,VALID,75.935,VALID,393.155,VALID,24.738,VALID,62.0,VALID,0.427,
2019-02-02, 08:37:06,VALID,919.485,VALID,0.0,VALID,73.965,VALID,398.151,VALID,24.886,VALID,61.0,VALID,1.286,
2019-02-02, 08:38:06,VALID,919.464,VALID,0.0,VALID,74.923,VALID,401.762,VALID,24.761,VALID,63.0,VALID,1.154,
2019-02-02, 08:39:06,VALID,919.457,VALID,0.0,VALID,74.598,VALID,405.198,VALID,24.655,VALID,63.0,VALID,1.321,
2019-02-02, 08:40:06,VALID,919.451,VALID,0.0,VALID,76.18,VALID,409.569,VALID,24.568,VALID,59.0,VALID,0.65,
2019-02-02, 08:41:06,VALID,919.47,VALID,0.0,VALID,75.871,VALID,414.937,VALID,24.79,VALID,62.0,VALID,0.979,
2019-02-02, 08:42:06,VALID,919.477,VALID,0.0,VALID,73.764,VALID,420.88,VALID,24.958,VALID,66.0,VALID,1.157,
2019-02-02, 08:43:06,VALID,919.463,VALID,0.0,VALID,74.055,VALID,425.928,VALID,24.928,VALID,57.0,VALID,1.028,
2019-02-02, 08:44:06,VALID,919.479,VALID,0.0,VALID,75.212,VALID,431.133,VALID,24.992,VALID,53.0,VALID,0.64,
2019-02-02, 08:45:06,VALID,919.464,VALID,0.0,VALID,73.952,VALID,435.318,VALID,25.262,VALID,55.0,VALID,0.607,
2019-02-02, 08:46:06,VALID,919.444,VALID,0.0,VALID,73.422,VALID,436.873,VALID,25.502,VALID,76.0,VALID,1.299,
2019-02-02, 08:47:06,VALID,919.434,VALID,0.0,VALID,72.529,VALID,441.399,VALID,25.497,VALID,53.0,VALID,2.039,
2019-02-02, 08:48:06,VALID,919.418,VALID,0.0,VALID,73.185,VALID,442.002,VALID,25.19,VALID,56.0,VALID,1.721,
2019-02-02, 08:49:06,VALID,919.409,VALID,0.0,VALID,74.254,VALID,444.553,VALID,24.964,VALID,44.0,VALID,1.459,
2019-02-02, 08:50:06,VALID,919.417,VALID,0.0,VALID,75.027,VALID,436.973,VALID,24.949,VALID,48.0,VALID,2.438,
2019-02-02, 08:51:06,VALID,919.411,VALID,0.0,VALID,75.147,VALID,447.316,VALID,24.632,VALID,45.0,VALID,1.8,
2019-02-02, 08:52:06,VALID,919.396,VALID,0.0,VALID,76.175,VALID,458.106,VALID,24.495,VALID,45.0,VALID,1.698,
2019-02-02, 08:53:06,VALID,919.407,VALID,0.0,VALID,78.55,VALID,461.991,VALID,24.489,VALID,46.0,VALID,1.322,
2019-02-02, 08:54:06,VALID,919.412,VALID,0.0,VALID,74.867,VALID,464.914,VALID,24.55,VALID,48.0,VALID,1.877,
2019-02-02, 08:55:06,VALID,919.408,VALID,0.0,VALID,75.666,VALID,471.043,VALID,24.384,VALID,48.0,VALID,2.036,
2019-02-02, 08:56:06,VALID,919.447,VALID,0.0,VALID,75.135,VALID,472.595,VALID,24.182,VALID,60.0,VALID,2.072,
2019-02-02, 08:57:06,VALID,919.434,VALID,0.0,VALID,75.073,VALID,472.556,VALID,24.171,INVALID,360.0,VALID,0.0,
2019-02-02, 08:58:06,VALID,919.435,VALID,0.0,VALID,74.929,VALID,472.07,VALID,24.371,INVALID,360.0,VALID,0.0,
2019-02-02, 08:59:06,VALID,919.448,VALID,0.0,VALID,76.0,VALID,476.306,VALID,24.572,INVALID,360.0,VALID,0.0,
2019-02-02, 09:00:06,VALID,919.442,VALID,0.0,VALID,77.223,VALID,479.329,VALID,24.674,INVALID,360.0,VALID,0.0,
2019-02-02, 09:01:06,VALID,919.427,VALID,0.0,VALID,75.435,VALID,484.691,VALID,24.848,INVALID,360.0,VALID,0.0,
2019-02-02, 09:02:06,VALID,919.433,VALID,0.0,VALID,75.344,VALID,489.987,VALID,25.005,INVALID,360.0,VALID,0.0,
2019-02-02, 09:03:06,VALID,919.429,VALID,0.0,VALID,75.803,VALID,494.567,VALID,25.054,INVALID,360.0,VALID,0.0,
2019-02-02, 09:04:06,VALID,919.434,VALID,0.0,VALID,74.351,VALID,497.0,VALID,25.145,INVALID,360.0,VALID,0.0,
2019-02-02, 09:05:06,VALID,919.447,VALID,0.0,VALID,74.242,VALID,500.268,VALID,25.145,INVALID,360.0,VALID,0.0,
2019-02-02, 09:06:06,VALID,919.466,VALID,0.0,VALID,72.396,VALID,503.582,VALID,25.105,INVALID,360.0,VALID,0.0,
2019-02-02, 09:07:06,VALID,919.453,VALID,0.0,VALID,71.926,VALID,507.477,VALID,24.772,INVALID,360.0,VALID,0.0,
2019-02-02, 09:08:06,VALID,919.447,VALID,0.0,VALID,71.636,VALID,513.811,VALID,24.675,INVALID,360.0,VALID,0.0,
2019-02-02, 09:09:06,VALID,919.423,VALID,0.0,VALID,73.619,VALID,520.118,VALID,24.797,INVALID,360.0,VALID,0.0,
2019-02-02, 09:10:06,VALID,919.405,VALID,0.0,VALID,73.435,VALID,524.42,VALID,25.079,INVALID,360.0,VALID,0.0,
2019-02-02, 09:11:06,VALID,919.381,VALID,0.0,VALID,73.277,VALID,530.35,VALID,25.212,INVALID,360.0,VALID,0.0,
2019-02-02, 09:12:06,VALID,919.384,VALID,0.0,VALID,71.338,VALID,537.488,VALID,25.337,INVALID,360.0,VALID,0.0,
2019-02-02, 09:13:06,VALID,919.373,VALID,0.0,VALID,70.428,VALID,541.542,VALID,25.286,INVALID,360.0,VALID,0.0,
2019-02-02, 09:14:06,VALID,919.355,VALID,0.0,VALID,70.424,VALID,544.753,VALID,25.137,INVALID,360.0,VALID,0.0,
2019-02-02, 09:15:06,VALID,919.336,VALID,0.0,VALID,71.646,VALID,550.138,VALID,25.171,INVALID,360.0,VALID,0.0,
2019-02-02, 09:16:06,VALID,919.326,VALID,0.0,VALID,71.87,VALID,555.301,VALID,25.144,INVALID,360.0,VALID,0.0,
2019-02-02, 09:17:06,VALID,919.33,VALID,0.0,VALID,71.95,VALID,559.924,VALID,25.035,INVALID,360.0,VALID,0.0,
2019-02-02, 09:18:06,VALID,919.341,VALID,0.0,VALID,73.328,VALID,561.775,VALID,25.06,INVALID,360.0,VALID,0.0,
2019-02-02, 09:19:06,VALID,919.334,VALID,0.0,VALID,72.155,VALID,563.478,VALID,25.23,INVALID,360.0,VALID,0.0,
2019-02-02, 09:20:06,VALID,919.343,VALID,0.0,VALID,71.246,VALID,568.031,VALID,25.494,INVALID,360.0,VALID,0.0,
2019-02-02, 09:21:06,VALID,919.342,VALID,0.0,VALID,69.684,VALID,573.751,VALID,25.642,INVALID,360.0,VALID,0.0,
2019-02-02, 09:22:06,VALID,919.353,VALID,0.0,VALID,67.116,VALID,576.254,VALID,25.919,INVALID,360.0,VALID,0.0,
2019-02-02, 09:23:06,VALID,919.362,VALID,0.0,VALID,68.341,VALID,581.237,VALID,25.986,INVALID,360.0,VALID,0.0,
2019-02-02, 09:24:06,VALID,919.361,VALID,0.0,VALID,69.361,VALID,586.863,VALID,25.997,INVALID,360.0,VALID,0.0,
2019-02-02, 09:25:06,VALID,919.383,VALID,0.0,VALID,68.58,VALID,590.691,VALID,26.173,INVALID,360.0,VALID,0.0,
2019-02-02, 09:26:06,VALID,919.387,VALID,0.0,VALID,67.668,VALID,593.065,VALID,26.348,INVALID,360.0,VALID,0.0,
2019-02-02, 09:27:06,VALID,919.361,VALID,0.0,VALID,67.97,VALID,595.605,VALID,26.353,INVALID,360.0,VALID,0.0,
2019-02-02, 09:28:06,VALID,919.383,VALID,0.0,VALID,68.804,VALID,601.924,VALID,26.025,INVALID,360.0,VALID,0.0,
2019-02-02, 09:29:06,VALID,919.373,VALID,0.0,VALID,70.006,VALID,605.524,VALID,26.104,INVALID,360.0,VALID,0.0,
2019-02-02, 09:30:06,VALID,919.376,VALID,0.0,VALID,69.966,VALID,612.373,VALID,26.436,INVALID,360.0,VALID,0.009,
2019-02-02, 09:31:06,VALID,919.376,VALID,0.0,VALID,68.32,VALID,619.288,VALID,26.708,INVALID,360.0,VALID,0.056,
2019-02-02, 09:32:06,VALID,919.384,VALID,0.0,VALID,68.228,VALID,623.833,VALID,26.735,INVALID,360.0,VALID,0.0,
2019-02-02, 09:33:06,VALID,919.389,VALID,0.0,VALID,68.12,VALID,621.138,VALID,26.599,INVALID,360.0,VALID,0.0,
2019-02-02, 09:34:06,VALID,919.384,VALID,0.0,VALID,68.642,VALID,630.276,VALID,26.599,INVALID,360.0,VALID,0.0,
2019-02-02, 09:35:06,VALID,919.404,VALID,0.0,VALID,66.321,VALID,637.729,VALID,26.558,INVALID,360.0,VALID,0.0,
2019-02-02, 09:36:06,VALID,919.391,VALID,0.0,VALID,66.583,VALID,642.044,VALID,26.404,INVALID,360.0,VALID,0.0,
2019-02-02, 09:37:06,VALID,919.383,VALID,0.0,VALID,66.987,VALID,648.556,VALID,26.391,INVALID,360.0,VALID,0.463,
2019-02-02, 09:38:06,VALID,919.389,VALID,0.0,VALID,66.734,VALID,651.471,VALID,26.57,INVALID,360.0,VALID,0.114,
2019-02-02, 09:39:06,VALID,919.374,VALID,0.0,VALID,64.525,VALID,656.384,VALID,26.796,INVALID,360.0,VALID,0.02,
2019-02-02, 09:40:06,VALID,919.372,VALID,0.0,VALID,65.351,VALID,662.712,VALID,26.821,VALID,99.0,VALID,0.939,
2019-02-02, 09:41:06,VALID,919.374,VALID,0.0,VALID,65.414,VALID,673.804,VALID,26.811,VALID,76.0,VALID,0.89,
2019-02-02, 09:42:06,VALID,919.366,VALID,0.0,VALID,66.36,VALID,684.105,VALID,26.781,VALID,49.0,VALID,0.869,
2019-02-02, 09:43:06,VALID,919.384,VALID,0.0,VALID,66.68,VALID,699.415,VALID,26.858,VALID,74.0,VALID,2.243,
2019-02-02, 09:44:06,VALID,919.358,VALID,0.0,VALID,66.518,VALID,714.716,VALID,26.75,VALID,52.0,VALID,1.4,
2019-02-02, 09:45:06,VALID,919.345,VALID,0.0,VALID,66.039,VALID,727.694,VALID,26.625,VALID,57.0,VALID,1.417,
2019-02-02, 09:46:06,VALID,919.36,VALID,0.0,VALID,65.991,VALID,728.755,VALID,26.277,VALID,60.0,VALID,3.136,
2019-02-02, 09:47:06,VALID,919.361,VALID,0.0,VALID,67.659,VALID,747.29,VALID,25.756,VALID,55.0,VALID,2.013,
2019-02-02, 09:48:06,VALID,919.364,VALID,0.0,VALID,68.894,VALID,761.041,VALID,25.606,VALID,57.0,VALID,2.433,
2019-02-02, 09:49:06,VALID,919.358,VALID,0.0,VALID,69.564,VALID,777.975,VALID,25.673,VALID,62.0,VALID,2.482,
2019-02-02, 09:50:06,VALID,919.378,VALID,0.0,VALID,68.576,VALID,336.538,VALID,25.655,VALID,60.0,VALID,2.346,
2019-02-02, 09:51:06,VALID,919.373,VALID,0.0,VALID,69.067,VALID,570.527,VALID,25.407,VALID,61.0,VALID,2.308,
2019-02-02, 09:52:06,VALID,919.344,VALID,0.0,VALID,69.495,VALID,650.357,VALID,25.289,VALID,51.0,VALID,1.867,
2019-02-02, 09:53:06,VALID,919.345,VALID,0.0,VALID,70.238,VALID,788.696,VALID,25.36,VALID,44.0,VALID,1.404,
2019-02-02, 09:54:06,VALID,919.311,VALID,0.0,VALID,70.326,VALID,396.489,VALID,25.53,VALID,57.0,VALID,1.02,
2019-02-02, 09:55:06,VALID,919.316,VALID,0.0,VALID,70.934,VALID,250.758,VALID,25.879,VALID,57.0,VALID,2.582,
2019-02-02, 09:56:06,VALID,919.31,VALID,0.0,VALID,69.785,VALID,231.29,VALID,25.567,VALID,36.0,VALID,2.414,
2019-02-02, 09:57:06,VALID,919.32,VALID,0.0,VALID,71.279,VALID,226.222,VALID,25.226,VALID,25.0,VALID,2.063,
2019-02-02, 09:58:06,VALID,919.338,VALID,0.0,VALID,71.953,VALID,226.407,VALID,25.019,VALID,30.0,VALID,1.221,
2019-02-02, 09:59:06,VALID,919.362,VALID,0.0,VALID,73.527,VALID,242.241,VALID,25.03,VALID,39.0,VALID,0.845,
2019-02-02, 10:00:06,VALID,919.357,VALID,0.0,VALID,72.952,VALID,251.243,VALID,25.119,VALID,55.0,VALID,1.706,
2019-02-02, 10:01:06,VALID,919.35,VALID,0.0,VALID,72.371,VALID,259.241,VALID,25.03,VALID,25.0,VALID,1.869,
2019-02-02, 10:02:06,VALID,919.315,VALID,0.0,VALID,71.665,VALID,277.37,VALID,24.919,VALID,341.0,VALID,1.854,
2019-02-02, 10:03:06,VALID,919.33,VALID,0.0,VALID,71.524,VALID,289.833,VALID,25.017,VALID,340.0,VALID,0.676,
2019-02-02, 10:04:06,VALID,919.32,VALID,0.0,VALID,72.965,VALID,286.177,VALID,25.114,VALID,16.0,VALID,0.897,
2019-02-02, 10:05:06,VALID,919.317,VALID,0.0,VALID,72.931,VALID,274.436,VALID,25.109,VALID,5.0,VALID,1.151,
2019-02-02, 10:06:06,VALID,919.306,VALID,0.0,VALID,73.577,VALID,273.206,VALID,25.113,VALID,28.0,VALID,0.752,
2019-02-02, 10:07:06,VALID,919.315,VALID,0.0,VALID,74.795,VALID,275.927,VALID,25.043,VALID,26.0,VALID,1.223,
2019-02-02, 10:08:06,VALID,919.314,VALID,0.0,VALID,74.625,VALID,294.526,VALID,24.997,VALID,32.0,VALID,1.365,
2019-02-02, 10:09:06,VALID,919.32,VALID,0.0,VALID,75.07,VALID,367.914,VALID,24.871,VALID,28.0,VALID,0.935,
2019-02-02, 10:10:06,VALID,919.321,VALID,0.0,VALID,74.031,VALID,485.97,VALID,24.878,VALID,359.0,VALID,1.296,
2019-02-02, 10:11:06,VALID,919.335,VALID,0.0,VALID,73.505,VALID,686.768,VALID,24.971,VALID,6.0,VALID,0.85,
2019-02-02, 10:12:06,VALID,919.331,VALID,0.0,VALID,72.724,VALID,924.963,VALID,25.213,VALID,357.0,VALID,1.084,
2019-02-02, 10:13:06,VALID,919.332,VALID,0.0,VALID,72.452,VALID,914.137,VALID,25.492,VALID,357.0,VALID,0.995,
2019-02-02, 10:14:06,VALID,919.334,VALID,0.0,VALID,70.838,VALID,908.358,VALID,25.824,INVALID,360.0,VALID,0.15,
2019-02-02, 10:15:06,VALID,919.327,VALID,0.0,VALID,69.898,VALID,908.295,VALID,26.205,INVALID,360.0,VALID,0.08,
2019-02-02, 10:16:06,VALID,919.317,VALID,0.0,VALID,69.151,VALID,910.901,VALID,26.504,VALID,279.0,VALID,0.679,
2019-02-02, 10:17:06,VALID,919.33,VALID,0.0,VALID,69.479,VALID,918.266,VALID,26.493,VALID,279.0,VALID,0.995,
2019-02-02, 10:18:06,VALID,919.332,VALID,0.0,VALID,69.383,VALID,938.794,VALID,26.374,VALID,279.0,VALID,0.795,
2019-02-02, 10:19:06,VALID,919.342,VALID,0.0,VALID,69.889,VALID,934.401,VALID,26.335,VALID,279.0,VALID,0.493,
2019-02-02, 10:20:06,VALID,919.344,VALID,0.0,VALID,68.854,VALID,817.039,VALID,26.448,VALID,48.0,VALID,0.451,
2019-02-02, 10:21:06,VALID,919.336,VALID,0.0,VALID,68.719,VALID,926.284,VALID,26.752,VALID,91.0,VALID,0.361,
2019-02-02, 10:22:06,VALID,919.33,VALID,0.0,VALID,67.832,VALID,939.083,VALID,27.279,VALID,39.0,VALID,0.384,
2019-02-02, 10:23:06,VALID,919.354,VALID,0.0,VALID,68.072,VALID,942.368,VALID,27.602,VALID,46.0,VALID,0.572,
2019-02-02, 10:24:06,VALID,919.343,VALID,0.0,VALID,63.252,VALID,968.937,VALID,27.738,VALID,77.0,VALID,1.879,
2019-02-02, 10:25:06,VALID,919.331,VALID,0.0,VALID,63.548,VALID,981.47,VALID,27.468,VALID,77.0,VALID,1.434,
2019-02-02, 10:26:06,VALID,919.329,VALID,0.0,VALID,64.392,VALID,967.826,VALID,27.403,VALID,69.0,VALID,0.615,
2019-02-02, 10:27:06,VALID,919.248,VALID,0.0,VALID,64.586,VALID,776.556,VALID,27.745,VALID,3.0,VALID,1.675,
2019-02-02, 10:28:06,VALID,919.224,VALID,0.0,VALID,66.957,VALID,467.563,VALID,27.819,VALID,10.0,VALID,3.784,
2019-02-02, 10:29:06,VALID,919.328,VALID,0.0,VALID,65.696,VALID,603.756,VALID,26.991,VALID,1.0,VALID,1.757,
2019-02-02, 10:30:06,VALID,919.347,VALID,0.0,VALID,68.161,VALID,408.06,VALID,26.527,VALID,15.0,VALID,1.441,
2019-02-02, 10:31:06,VALID,919.351,VALID,0.0,VALID,67.395,VALID,358.82,VALID,26.194,VALID,30.0,VALID,1.343,
2019-02-02, 10:32:06,VALID,919.349,VALID,0.0,VALID,69.064,VALID,345.517,VALID,25.864,VALID,5.0,VALID,1.786,
2019-02-02, 10:33:06,VALID,919.35,VALID,0.0,VALID,68.204,VALID,343.684,VALID,25.785,VALID,356.0,VALID,1.006,
2019-02-02, 10:34:06,VALID,919.341,VALID,0.0,VALID,68.867,VALID,454.546,VALID,25.687,VALID,357.0,VALID,1.196,
2019-02-02, 10:35:06,VALID,919.323,VALID,0.0,VALID,71.07,VALID,473.517,VALID,25.605,VALID,16.0,VALID,1.321,
2019-02-02, 10:36:06,VALID,919.335,VALID,0.0,VALID,71.371,VALID,391.271,VALID,25.505,VALID,27.0,VALID,0.775,